Regional Weather Roundup
Issued by NWS Columbia, SC

Home | Current Version | Previous Version | Text Only | Print | Product List | Glossary On
Versions: 1 2 3 4 5 6 7 8 9 10 11 12 13 14 15 16 17 18 19 20 21 22 23 24 25 26 27 28 29 30 31 32 33 34 35 36 37 38 39 40 41 42 43 44 45 46 47 48 49 50
000
ASUS42 KCAE 270310
RWRCAE
REGIONAL WEATHER ROUNDUP
NATIONAL WEATHER SERVICE COLUMBIA SC
1100 PM EDT THU MAR 26 2015

NOTE: "FAIR" INDICATES FEW OR NO CLOUDS BELOW 12,000 FEET WITH NO
SIGNIFICANT WEATHER AND/OR OBSTRUCTIONS TO VISIBILITY.

NOT ALL STATIONS ARE QUALITY CONTROLLED BY THE NATIONAL
WEATHER SERVICE. USE DATA WITH CAUTION...ESPECIALLY
DEWPOINT OBSERVATIONS.

SCZ001>056-GAZ040-063>065-077-270400-
...UPSTATE SOUTH CAROLINA...

CITY           SKY/WX    TMP DP  RH WIND       PRES   REMARKS
ANDERSON       PTCLDY    63  56  78 S10       29.76S
LIBERTY        PTCLDY    63  52  67 SW7       29.75S
SPARTANBURG    MOCLDY    66  55  68 SW5       29.75S
CLEMSON        MOCLDY    66  49  54 CALM      29.76S
GREENVILLE     PTCLDY    64  51  62 SW9       29.76S
GREENWOOD      MOCLDY    65  56  72 SW12      29.78S
GREER          PTCLDY    63  52  67 SW9       29.74F
ROCK HILL      CLOUDY    66  56  70 SW10      29.75S
CHESTER        CLOUDY    68  55  64 SW8       29.76S
LAURENS        CLOUDY    64  61  88 SW8       29.76F


...CENTRAL SOUTH CAROLINA...

CITY           SKY/WX    TMP DP  RH WIND       PRES   REMARKS
COLUMBIA APT   CLOUDY    69  56  62 SW8       29.76S
COLUMBIA OWENS CLOUDY    69  55  60 SW3       29.78S
DARLINGTON     CLOUDY    68  57  68 S14       29.77S
FLORENCE       CLOUDY    69  58  67 S9        29.76F
MCENTIRE ANGB  CLOUDY    68  57  67 SW3       29.77S
ORANGEBURG     CLOUDY    68  58  70 S7        29.79R
SUMTER SHAW    CLOUDY    67  60  77 SW5       29.75S
NEWBERRY       CLOUDY    63  55  77 SW7       29.80S
AIKEN          FAIR      64  54  68 SW7       29.82S
BARNWELL       FAIR      70  57  64 SW7       29.81R
MANNING        RAIN      64  55  72 CALM      29.79S
CAMDEN         FAIR      70  55  60 SW5       29.76S
LANCASTER      CLOUDY    66  59  77 SW9       29.76R
WINNSBORO      CLOUDY    64  55  72 S8        29.76S


...EASTERN AND COASTAL SOUTH CAROLINA...

CITY           SKY/WX    TMP DP  RH WIND       PRES   REMARKS
N MYRTLE BCH   CLOUDY    61  59  93 SW12      29.80F
CONWAY         FAIR      64  55  72 S5        29.80F
MARION         FAIR      66  55  68 S7        29.78F
HARTSVILLE     FAIR      66  59  77 S6        29.77S
FLORENCE       CLOUDY    69  58  67 S9        29.76F
DARLINGTON     CLOUDY    68  57  68 S14       29.77S
CHARLESTON APT LGT RAIN  65  57  75 SW9       29.81S
MOUNT PLEASANT MOCLDY    66  61  82 S8        29.82R
WALTERBORO     CLOUDY    66  59  77 SW7       29.81S
BEAUFORT       CLOUDY    66  60  81 S5        29.82S


...EASTERN GEORGIA...

CITY           SKY/WX    TMP DP  RH WIND       PRES   REMARKS
AUGUSTA BUSH F CLOUDY    68  57  68 SW9       29.79R
AUGUSTA DANIEL CLOUDY    69  56  62 SW8       29.79F
THOMSON        CLOUDY    66  61  83 S5        29.83F
WASHINGTON     FAIR      66  64  94 SW3       29.78F
CLAXTON        CLOUDY    64  64 100 CALM      29.82S
SYLVANIA       CLOUDY    64  64  97 W3        29.82S
STATESBORO     CLOUDY    64  64 100 CALM      29.82S
SAVANNAH       CLOUDY    65  62  90 SW5       29.83S


...SOUTHERN NORTH CAROLINA...

CITY           SKY/WX    TMP DP  RH WIND       PRES   REMARKS
CHARLOTTE      CLOUDY    67  54  63 SW16      29.74S
MONROE         CLOUDY    67  55  65 SW14G21   29.73S
WADESBORO      CLOUDY    67  54  62 S5        29.73S
ROCKINGHAM       N/A     67  57  69 S7        29.74S
RUTHERFORDTON  MOCLDY    64  50  60 SW5       29.73F
ASHEVILLE      MOCLDY    61  50  67 SW10      29.75F

$$


USA.gov is the U.S. government's official web portal to all federal, state and local government web resources and services.